When you browse on this site, cookies collect data to enhance your experience and personalize the content and advertising you see.
Visit our Privacy Policy to learn more. By continuing to use the site, you agree to this use of cookies and data.
  • In Deutschland
  • Länderverzeichnis
  • Für 7 Tage
  • Wassertemperatur
  • Satellitenkarten
  • Wetterkarte
  • Widgets
  • user-avatar
    Anmelden

    Stündliche Wetter Albany

    Heute, 18 November, Sonntag

    Zeit Temperatur Niederschläge Wind Luftdruck Luftfeuchtigkeit
    00:00 +15°C° 0 mm 5 m/S 753 mmHg 92%
    01:00 +14°C° 0 mm 4 m/S 753 mmHg 93%
    02:00 +14°C° 0 mm 5 m/S 753 mmHg 91%
    03:00 +15°C° 0 mm 5 m/S 753 mmHg 89%
    04:00 +15°C° 0 mm 5 m/S 753 mmHg 88%
    05:00 +15°C° 0 mm 5 m/S 753 mmHg 87%
    06:00 +16°C° 0 mm 5 m/S 753 mmHg 82%
    07:00 +17°C° 0 mm 5 m/S 753 mmHg 77%
    08:00 +17°C° 0 mm 5 m/S 754 mmHg 73%
    09:00 +19°C° 0 mm 5 m/S 754 mmHg 70%
    10:00 +20°C° 0 mm 6 m/S 754 mmHg 68%
    11:00 +20°C° 0 mm 6 m/S 754 mmHg 65%
    12:00 +20°C° 0.3 mm 6 m/S 754 mmHg 70%
    13:00 +18°C° 0.3 mm 7 m/S 754 mmHg 75%
    14:00 +18°C° 0.3 mm 7 m/S 754 mmHg 80%
    15:00 +16°C° 0.1 mm 7 m/S 754 mmHg 82%
    16:00 +15°C° 0.1 mm 7 m/S 755 mmHg 83%
    17:00 +14°C° 0.1 mm 7 m/S 755 mmHg 84%
    18:00 +14°C° 0.1 mm 6 m/S 756 mmHg 83%
    19:00 +13°C° 0.1 mm 6 m/S 756 mmHg 82%
    20:00 +13°C° 0.1 mm 6 m/S 757 mmHg 81%
    21:00 +11°C° 0 mm 6 m/S 757 mmHg 78%
    22:00 +12°C° 0 mm 5 m/S 757 mmHg 75%
    23:00 +10°C° 0 mm 5 m/S 758 mmHg 73%

    Morgen, 19 November, Montag

    Zeit Temperatur Niederschläge Wind Luftdruck Luftfeuchtigkeit
    00:00 +10°C° 0 mm 5 m/S 758 mmHg 73%
    01:00 +10°C° 0 mm 5 m/S 758 mmHg 73%
    02:00 +10°C° 0 mm 5 m/S 758 mmHg 73%
    03:00 +10°C° 0.1 mm 5 m/S 758 mmHg 73%
    04:00 +10°C° 0.1 mm 5 m/S 758 mmHg 73%
    05:00 +10°C° 0.1 mm 5 m/S 758 mmHg 74%
    06:00 +11°C° 0.1 mm 6 m/S 758 mmHg 70%
    07:00 +13°C° 0.1 mm 6 m/S 758 mmHg 66%
    08:00 +14°C° 0.1 mm 7 m/S 759 mmHg 62%
    09:00 +15°C° 0.2 mm 7 m/S 759 mmHg 58%
    10:00 +16°C° 0.2 mm 7 m/S 759 mmHg 54%
    11:00 +16°C° 0.2 mm 8 m/S 759 mmHg 49%
    12:00 +16°C° 0.2 mm 8 m/S 759 mmHg 54%
    13:00 +15°C° 0.2 mm 8 m/S 759 mmHg 59%
    14:00 +14°C° 0.2 mm 7 m/S 760 mmHg 64%
    15:00 +12°C° 0.1 mm 7 m/S 760 mmHg 64%
    16:00 +12°C° 0.1 mm 7 m/S 760 mmHg 63%
    17:00 +12°C° 0.1 mm 7 m/S 761 mmHg 63%
    18:00 +11°C° 0 mm 7 m/S 761 mmHg 64%
    19:00 +10°C° 0 mm 6 m/S 761 mmHg 65%
    20:00 +10°C° 0 mm 6 m/S 762 mmHg 66%
    21:00 +9°C° 0 mm 5 m/S 762 mmHg 66%
    22:00 +9°C° 0 mm 5 m/S 762 mmHg 67%
    23:00 +10°C° 0 mm 4 m/S 762 mmHg 68%

    übermorgen, 20 November, Dienstag

    Zeit Temperatur Niederschläge Wind Luftdruck Luftfeuchtigkeit
    00:00 +10°C° 0 mm 4 m/S 762 mmHg 68%
    01:00 +10°C° 0 mm 4 m/S 762 mmHg 68%
    02:00 +9°C° 0 mm 5 m/S 762 mmHg 68%
    03:00 +9°C° 0 mm 5 m/S 762 mmHg 69%
    04:00 +9°C° 0 mm 5 m/S 761 mmHg 69%
    05:00 +10°C° 0 mm 4 m/S 761 mmHg 70%
    06:00 +10°C° 0 mm 5 m/S 761 mmHg 67%
    07:00 +10°C° 0 mm 5 m/S 762 mmHg 65%
    08:00 +12°C° 0 mm 5 m/S 762 mmHg 62%
    09:00 +13°C° 0.1 mm 6 m/S 762 mmHg 59%
    10:00 +15°C° 0.1 mm 6 m/S 761 mmHg 55%
    11:00 +16°C° 0.1 mm 6 m/S 761 mmHg 52%
    12:00 +16°C° 0 mm 7 m/S 761 mmHg 53%
    13:00 +16°C° 0 mm 7 m/S 760 mmHg 55%
    14:00 +16°C° 0 mm 7 m/S 760 mmHg 56%
    15:00 +15°C° 0.2 mm 7 m/S 760 mmHg 62%
    16:00 +15°C° 0.2 mm 7 m/S 760 mmHg 69%
    17:00 +14°C° 0.2 mm 7 m/S 760 mmHg 75%
    18:00 +14°C° 0.1 mm 6 m/S 760 mmHg 77%
    19:00 +13°C° 0.1 mm 6 m/S 760 mmHg 80%
    20:00 +12°C° 0.1 mm 5 m/S 760 mmHg 83%
    21:00 +12°C° 0.1 mm 5 m/S 760 mmHg 83%
    22:00 +12°C° 0.1 mm 4 m/S 761 mmHg 83%
    23:00 +12°C° 0.1 mm 4 m/S 761 mmHg 83%

    21 November, Mittwoch

    Zeit Temperatur Niederschläge Wind Luftdruck Luftfeuchtigkeit
    00:00 +11°C° 0.1 mm 3 m/S 760 mmHg 84%
    01:00 +11°C° 0.1 mm 3 m/S 760 mmHg 85%
    02:00 +11°C° 0.1 mm 3 m/S 760 mmHg 85%
    03:00 +11°C° 0 mm 3 m/S 760 mmHg 85%
    04:00 +11°C° 0 mm 3 m/S 760 mmHg 85%
    05:00 +11°C° 0 mm 3 m/S 760 mmHg 85%
    06:00 +11°C° 0.1 mm 3 m/S 760 mmHg 82%
    07:00 +12°C° 0.1 mm 3 m/S 760 mmHg 79%
    08:00 +13°C° 0.1 mm 3 m/S 760 mmHg 76%
    09:00 +14°C° 0.1 mm 4 m/S 760 mmHg 70%
    10:00 +15°C° 0.1 mm 4 m/S 760 mmHg 65%
    11:00 +17°C° 0.1 mm 4 m/S 760 mmHg 60%
    12:00 +17°C° 0 mm 4 m/S 760 mmHg 59%
    13:00 +17°C° 0 mm 4 m/S 759 mmHg 58%
    14:00 +17°C° 0 mm 4 m/S 759 mmHg 57%
    15:00 +17°C° 0 mm 4 m/S 758 mmHg 57%
    16:00 +15°C° 0 mm 4 m/S 758 mmHg 57%
    17:00 +15°C° 0 mm 4 m/S 758 mmHg 58%
    18:00 +14°C° 0 mm 4 m/S 758 mmHg 62%
    19:00 +13°C° 0 mm 5 m/S 758 mmHg 66%
    20:00 +12°C° 0 mm 5 m/S 758 mmHg 71%
    21:00 +12°C° 0 mm 5 m/S 758 mmHg 72%
    22:00 +12°C° 0 mm 5 m/S 758 mmHg 73%
    23:00 +11°C° 0 mm 6 m/S 757 mmHg 74%

    22 November, Donnerstag

    Zeit Temperatur Niederschläge Wind Luftdruck Luftfeuchtigkeit
    00:00 +11°C° 0 mm 6 m/S 756 mmHg 76%
    01:00 +11°C° 0 mm 6 m/S 755 mmHg 77%
    02:00 +11°C° 0 mm 7 m/S 754 mmHg 78%
    03:00 +11°C° 0 mm 6 m/S 754 mmHg 80%
    04:00 +12°C° 0 mm 5 m/S 755 mmHg 82%
    05:00 +12°C° 0 mm 4 m/S 755 mmHg 84%
    06:00 +13°C° 0.1 mm 5 m/S 755 mmHg 80%
    07:00 +13°C° 0.1 mm 5 m/S 755 mmHg 77%
    08:00 +14°C° 0.1 mm 5 m/S 755 mmHg 73%
    09:00 +14°C° 0.8 mm 4 m/S 755 mmHg 77%
    10:00 +14°C° 0.8 mm 4 m/S 754 mmHg 81%
    11:00 +13°C° 0.8 mm 3 m/S 754 mmHg 85%
    12:00 +13°C° 1.4 mm 3 m/S 754 mmHg 86%
    13:00 +13°C° 1.4 mm 3 m/S 754 mmHg 88%
    14:00 +14°C° 1.4 mm 2 m/S 753 mmHg 89%
    15:00 +14°C° 0.8 mm 3 m/S 753 mmHg 89%
    16:00 +14°C° 0.8 mm 3 m/S 753 mmHg 88%
    17:00 +14°C° 0.8 mm 3 m/S 752 mmHg 88%
    18:00 +14°C° 0.2 mm 2 m/S 753 mmHg 90%
    19:00 +14°C° 0.2 mm 2 m/S 753 mmHg 92%
    20:00 +13°C° 0.2 mm 1 m/S 753 mmHg 93%
    21:00 +13°C° 0.1 mm 1 m/S 754 mmHg 94%
    22:00 +13°C° 0.1 mm 1 m/S 754 mmHg 94%
    23:00 +13°C° 0.1 mm 1 m/S 754 mmHg 94%

    23 November, Freitag

    Zeit Temperatur Niederschläge Wind Luftdruck Luftfeuchtigkeit
    00:00 +13°C° 0.1 mm 2 m/S 754 mmHg 94%
    01:00 +13°C° 0.1 mm 2 m/S 754 mmHg 95%
    02:00 +13°C° 0.1 mm 2 m/S 754 mmHg 95%
    03:00 +13°C° 0.2 mm 2 m/S 754 mmHg 94%
    04:00 +12°C° 0.2 mm 3 m/S 754 mmHg 94%
    05:00 +13°C° 0.2 mm 4 m/S 755 mmHg 93%
    06:00 +13°C° 0.1 mm 4 m/S 755 mmHg 88%
    07:00 +14°C° 0.1 mm 5 m/S 756 mmHg 82%
    08:00 +15°C° 0.1 mm 6 m/S 756 mmHg 77%
    09:00 +16°C° 0 mm 5 m/S 757 mmHg 71%
    10:00 +17°C° 0 mm 5 m/S 757 mmHg 66%
    11:00 +19°C° 0 mm 5 m/S 757 mmHg 60%
    12:00 +19°C° 0 mm 5 m/S 757 mmHg 57%
    13:00 +20°C° 0 mm 5 m/S 757 mmHg 54%
    14:00 +20°C° 0 mm 5 m/S 757 mmHg 51%
    15:00 +19°C° 0 mm 5 m/S 757 mmHg 54%
    16:00 +19°C° 0 mm 5 m/S 757 mmHg 57%
    17:00 +18°C° 0 mm 4 m/S 757 mmHg 60%
    18:00 +17°C° 0 mm 4 m/S 757 mmHg 67%
    19:00 +14°C° 0 mm 3 m/S 758 mmHg 74%
    20:00 +13°C° 0 mm 2 m/S 758 mmHg 82%
    21:00 +13°C° 0 mm 2 m/S 758 mmHg 84%
    22:00 +13°C° 0 mm 2 m/S 758 mmHg 86%
    23:00 +12°C° 0 mm 2 m/S 759 mmHg 88%
    Mehr zeigen